Zacatecas Airport, Mexico

4:45 AM CDT on April 27, 2018 (GMT -0500)
Gen Leobardo C Ruiz International

Weather History for MMZC - August, 2013

Change the Weather History Date:

Wednesday, August 21, 2013

  Actual Average Record
Temperature  
Mean Temperature 61 °F -  
Max Temperature 71 °F 74 °F 80 °F (1997)
Min Temperature 51 °F 51 °F 48 °F (1997)
Degree Days  
Heating Degree Days 4    
Growing Degree Days 11 (Base 50)    
Moisture  
Dew Point 45 °F    
Average Humidity 53    
Maximum Humidity 71    
Minimum Humidity 40    
Precipitation  
Precipitation 0.00 in - - ()
Sea Level Pressure  
Sea Level Pressure 30.29 in    
Wind  
Wind Speed 7 mph ()    
Max Wind Speed 14 mph    
Max Gust Speed -    
Visibility 9.5 miles    
Events      
Averages and records for this station are not official NWS values.
T = Trace of Precipitation, MM = Missing Value Source: Averaged Metar Reports

Daily Weather History Graph

Daily Weather History Graph

Search for Another Location

Airport or City:

Astronomy

Aug. 21, 2013 Rise Set
Actual Time 7:29 AM CDT 8:17 PM CDT
Civil Twilight 7:06 AM CDT 8:40 PM CDT
Nautical Twilight 6:39 AM CDT 9:07 PM CDT
Astronomical Twilight 6:11 AM CDT 9:35 PM CDT
Moon 8:43 PM CDT (8/21) 8:00 AM CDT (8/21)
Length of Visible Light 13h 34m
Length of Day
12h 48m
Waxing Gibbous, 99% of the Moon is Illuminated
Aug 21
Waxing Gibbous
Aug 28
Last Quarter
Sep 5
New
Sep 12
First Quarter
Sep 19
Full

Hourly Weather History & Observations

Time (CDT) Temp. Dew Point Humidity Pressure Visibility Wind Dir Wind Speed Gust Speed Precip Events Conditions
12:43 AM 62.6 °F 42.8 °F 48% 30.28 in 10.0 mi South 13.8 mph - N/A   Clear
1:44 AM 60.8 °F 42.8 °F 52% 30.29 in 10.0 mi SW 4.6 mph - N/A   Clear
3:43 AM 57.2 °F 42.8 °F 59% 30.28 in 10.0 mi NW 5.8 mph - N/A   Clear
4:42 AM 55.4 °F 41.0 °F 58% 30.28 in 10.0 mi NNE 4.6 mph - N/A   Partly Cloudy
5:43 AM 53.6 °F 42.8 °F 67% 30.29 in 10.0 mi East 6.9 mph - N/A   Scattered Clouds
6:44 AM 55.4 °F 44.6 °F 67% 30.29 in 10.0 mi ESE 5.8 mph - N/A   Scattered Clouds
7:42 AM 51.8 °F 42.8 °F 71% 30.30 in 8.0 mi Calm Calm - N/A   Scattered Clouds
8:45 AM 57.2 °F 44.6 °F 63% 30.31 in 8.0 mi ESE 6.9 mph - N/A   Scattered Clouds
9:45 AM 60.8 °F 46.4 °F 59% 30.32 in 8.0 mi ESE 4.6 mph - N/A   Scattered Clouds
10:42 AM 62.6 °F 46.4 °F 55% 30.33 in 8.0 mi South 5.8 mph - N/A   Mostly Cloudy
11:44 AM 66.2 °F 46.4 °F 49% 30.34 in 8.0 mi SSE 13.8 mph - N/A   Mostly Cloudy
12:41 PM 66.2 °F 46.4 °F 49% 30.34 in 8.0 mi SSE 5.8 mph - N/A   Overcast
1:40 PM 69.8 °F 46.4 °F 43% 30.32 in 10.0 mi East 5.8 mph - N/A   Overcast
2:46 PM 71.6 °F 46.4 °F 41% 30.29 in 10.0 mi ENE 8.1 mph - N/A   Overcast
3:59 PM 71.6 °F 46.4 °F 41% 30.26 in 10.0 mi ENE 11.5 mph - N/A   Overcast
5:24 PM 71.6 °F 46.4 °F 41% 30.24 in 10.0 mi East 10.4 mph - N/A   Overcast
5:43 PM 69.8 °F 44.6 °F 40% 30.24 in 10.0 mi East 9.2 mph - N/A   Mostly Cloudy
6:58 PM 71.6 °F 46.4 °F 41% 30.24 in 10.0 mi SE 11.5 mph - N/A   Mostly Cloudy
8:46 PM 64.4 °F 46.4 °F 52% 30.28 in 10.0 mi East 11.5 mph - N/A   Mostly Cloudy
9:47 PM 62.6 °F 46.4 °F 55% 30.29 in 10.0 mi ESE 10.4 mph - N/A   Mostly Cloudy
10:48 PM 62.6 °F 48.2 °F 59% 30.32 in 10.0 mi ESE 10.4 mph - N/A   Overcast
11:51 PM 62.6 °F 48.2 °F 59% 30.34 in 10.0 mi ESE 9.2 mph - N/A   Mostly Cloudy